Probability
0 0 0 0 0 0 0 0 0 0 0 0 0 0 0 0 0 0 0 0 0 0 0 0 1 2 2 3 3 3 1 0 0 0 0 0 0 0 0 0 0 0 0 0 0 0 0 0 0
0 0 0 0 0 0 0 0 0 0 0 0 0 0 0 0 0 0 0 0 0 0 0 1 3 4 4 3 3 3 2 1 1 0 0 0 0 0 0 0 0 0 0 0 0 0 0 0 0
0 0 0 0 0 0 0 0 0 0 0 0 0 0 0 0 0 0 0 0 0 0 0 1 3 7 7 5 4 3 3 2 1 0 0 0 0 0 0 0 0 0 0 0 0 0 0 0 0
0 0 0 0 0 0 0 0 0 0 0 0 0 0 0 0 0 0 0 0 0 0 0 0 2 6 8 7 6 4 3 3 1 0 0 0 0 0 0 0 0 0 0 0 0 0 0 0 0
0 0 0 0 0 0 0 0 0 0 0 0 0 0 0 0 0 0 0 0 0 0 0 0 1 5 7 7 7 4 3 3 1 0 0 0 0 0 0 0 0 0 0 0 1 0 0 0 0
0 0 0 0 0 0 0 0 0 0 0 0 0 0 0 0 0 0 0 0 0 0 0 0 1 3 5 6 5 4 4 4 2 0 0 0 0 0 0 0 0 0 0 0 1 1 1 0 0
0 0 0 0 0 0 0 1 1 0 0 0 0 0 0 0 0 0 0 0 0 0 0 0 0 1 3 4 4 4 5 4 2 0 0 1 0 0 0 0 0 0 0 0 1 1 1 0 0
0 0 0 0 0 0 1 2 2 1 0 0 0 0 0 0 0 0 0 0 0 0 0 0 0 1 2 3 3 3 3 3 1 0 0 0 0 0 0 0 0 0 0 0 1 1 1 0 0
0 0 0 0 0 0 1 2 2 1 0 0 0 0 0 0 0 0 1 0 0 0 0 0 0 1 2 3 3 2 1 1 0 0 0 0 0 0 0 0 0 0 0 0 0 0 0 0 0
0 0 0 0 0 0 0 1 2 1 0 0 0 0 0 0 0 0 1 1 0 0 0 0 1 1 2 3 3 1 0 0 0 0 0 0 0 0 0 0 0 0 0 0 0 0 0 0 0
0 0 0 0 1 1 0 0 1 1 0 0 0 0 0 0 0 0 1 2 1 1 0 0 1 2 3 3 2 1 0 0 0 0 0 0 0 0 0 0 0 0 0 0 0 0 0 0 0
0 0 0 0 1 1 0 0 0 0 0 0 0 0 0 0 0 0 1 2 2 2 1 0 0 1 2 3 2 0 0 0 0 0 0 0 0 0 0 0 0 0 0 0 0 0 0 0 0
0 0 0 0 0 0 0 0 0 0 0 0 0 0 0 0 0 0 0 1 1 2 1 0 0 0 1 2 2 1 0 1 1 0 0 0 0 0 0 0 0 0 0 0 0 0 0 0 0
1 1 0 0 0 0 0 0 0 0 0 0 0 0 0 0 0 0 0 0 0 1 1 1 1 1 1 3 2 1 0 1 1 0 0 0 0 0 0 0 0 0 0 0 0 0 0 0 0
0 0 0 0 0 0 0 0 0 0 0 0 0 0 0 0 0 0 0 0 0 0 0 1 2 2 3 3 3 1 0 0 0 0 0 0 0 0 0 0 0 0 0 0 0 0 0 0 0
0 0 0 0 0 0 0 0 0 0 0 0 0 0 0 0 0 0 0 0 0 0 0 1 1 3 4 4 3 2 1 0 0 0 0 0 0 0 0 0 0 0 0 0 0 0 0 0 0
0 0 0 0 0 0 0 0 0 0 0 0 0 0 0 0 0 0 0 0 0 0 0 0 0 2 4 4 3 2 1 0 0 0 0 0 0 0 0 0 0 0 0 0 0 0 0 0 0
0 0 0 0 0 0 0 0 0 0 0 0 0 0 0 0 0 0 0 0 0 0 0 0 0 1 3 3 2 1 0 0 0 0 0 0 0 0 0 0 0 0 0 0 0 0 0 0 0
0 0 0 0 0 0 0 0 0 0 0 0 0 0 0 0 0 0 0 0 0 0 0 0 0 1 2 3 2 0 0 0 0 0 0 0 0 0 0 0 0 0 0 0 0 0 0 0 0
0 0 0 0 0 0 0 0 0 0 0 0 0 0 0 0 0 0 0 0 0 0 0 0 0 0 1 2 1 0 0 0 0 0 0 0 0 0 0 0 0 0 0 0 0 0 0 0 0
0 0 0 0 0 0 0 0 0 0 0 0 0 0 0 0 0 0 0 0 0 0 0 0 0 0 0 0 0 0 0 0 0 0 0 0 0 0 0 0 0 0 0 0 0 0 0 0 0
0 0 0 0 0 0 0 0 0 0 0 0 0 0 0 0 0 0 0 0 0 0 0 0 0 0 0 0 0 0 0 0 0 0 0 0 0 1 0 0 0 0 0 0 0 0 0 0 0
0 0 0 0 0 0 0 0 0 0 0 0 0 0 0 0 0 0 0 0 0 0 0 0 0 0 0 0 0 0 0 0 0 0 0 0 0 0 0 0 0 0 0 0 0 0 0 0 0
0 0 0 0 0 0 0 0 0 0 0 0 0 0 0 0 0 0 0 0 0 0 0 0 0 0 0 0 0 0 0 0 0 0 0 0 0 0 0 0 0 0 0 0 0 0 0 0 0
0 0 0 0 0 0 0 0 0 0 0 0 0 0 0 0 0 0 0 0 0 0 0 0 0 0 0 0 0 0 0 0 0 0 0 0 0 0 0 0 0 0 0 0 0 0 0 0 0
0 0 0 0 0 0 0 0 0 0 0 0 0 0 0 0 0 0 0 0 0 0 0 0 0 0 0 0 0 0 0 0 0 0 0 0 0 0 0 0 0 0 0 0 0 0 0 0 0
0 0 0 0 0 0 0 0 0 0 0 0 0 0 0 0 0 0 0 0 0 0 0 0 0 0 0 0 0 0 0 0 0 0 0 0 0 0 0 0 0 0 0 0 0 0 0 0 0
0 0 0 0 0 0 0 0 0 0 0 0 0 0 0 0 0 0 0 0 0 0 0 0 0 0 0 0 0 0 0 0 0 0 0 0 0 0 0 0 0 0 0 0 0 0 0 0 0
0 0 0 0 0 0 0 0 0 0 0 0 0 0 0 0 0 0 0 0 0 0 0 0 0 0 0 0 0 0 0 0 0 0 0 0 0 0 0 0 0 0 0 0 0 0 0 0 0
0 0 0 0 0 0 0 0 0 0 0 0 0 0 0 0 0 0 0 0 0 0 0 0 0 0 0 0 0 0 0 0 0 0 0 0 0 0 0 0 0 0 0 0 0 0 0 0 0
Wind_Speed
12 8 5 2 3 3 4 1 1 3 3 4 4 4 6 7 5 6 3 5 6 5 5 5 6 7 7 7 7 7 7 8 8 8 9 9 9 9 9 9 10 10 10 10 10 11 11 11 11
9 6 3 2 3 4 2 3 4 5 5 4 3 3 5 7 6 6 4 4 5 5 5 6 6 7 7 7 7 7 7 7 8 8 8 8 9 9 9 9 9 9 9 9 10 10 10 10 10
7 5 2 2 3 3 0 4 6 7 5 2 3 5 5 5 5 4 4 4 5 6 5 6 7 7 7 7 6 7 7 7 7 8 8 8 8 9 9 9 9 10 9 9 9 9 10 10 10
4 2 2 3 5 2 1 3 5 6 3 2 3 5 5 5 3 5 5 4 5 5 6 6 7 6 7 7 6 6 6 7 7 7 7 8 8 8 8 9 9 9 9 9 9 9 9 9 9
3 3 3 4 5 1 2 2 3 4 3 2 1 4 4 4 6 6 4 4 5 5 5 5 6 6 6 6 6 6 6 7 7 7 7 7 7 8 8 8 8 9 9 9 9 9 8 9 9
3 3 4 5 4 2 3 3 1 2 3 3 1 3 4 5 5 3 3 4 4 5 5 5 5 6 6 6 6 6 6 6 6 6 6 6 7 7 8 8 8 8 8 9 9 9 8 8 9
3 3 4 4 3 2 3 2 0 1 2 2 1 2 5 4 4 3 3 4 4 4 4 4 3 4 5 6 6 6 6 6 6 6 6 6 7 7 8 8 8 8 8 8 8 8 9 9 9
3 3 4 4 3 2 3 2 1 1 2 3 2 1 4 5 4 3 3 3 3 3 3 3 2 2 3 3 5 6 6 6 6 6 6 6 6 7 8 7 8 8 8 8 8 8 9 8 8
3 3 3 3 2 2 4 2 1 3 2 2 3 3 4 8 5 3 2 2 3 3 2 3 2 2 2 3 4 4 5 5 5 4 4 4 2 3 4 6 7 7 7 7 8 8 8 7 6
2 2 2 2 3 1 2 2 2 2 2 3 3 4 6 6 5 4 2 2 2 2 1 2 2 1 2 2 2 2 2 2 3 2 2 2 2 2 4 6 6 6 6 6 7 7 6 5 2
1 1 1 3 4 2 1 1 1 2 2 2 4 6 5 4 4 4 3 3 2 2 1 1 2 1 2 1 2 1 1 1 2 3 2 2 2 2 2 2 3 3 4 3 3 3 2 3 2
1 1 2 2 3 1 1 1 1 2 2 2 3 7 6 5 5 4 3 3 2 2 2 1 1 2 2 1 2 2 1 1 1 2 2 2 1 2 2 2 2 1 1 2 1 1 2 3 2
2 0 1 2 2 2 1 2 2 3 2 1 3 5 6 5 4 3 3 2 2 2 2 2 2 2 2 2 1 2 1 1 2 1 2 2 2 1 2 2 2 2 1 2 1 2 2 2 2
1 1 1 1 1 1 2 3 3 3 3 3 3 3 4 4 4 3 3 3 3 2 3 3 2 2 2 2 1 1 1 1 2 2 1 2 2 1 1 2 2 1 1 1 1 2 2 2 2
2 2 1 2 2 1 2 4 5 3 3 3 4 4 4 3 4 4 4 4 3 3 3 3 3 3 3 2 2 1 1 1 1 1 1 1 2 2 2 1 1 1 1 2 2 2 2 2 3
3 3 2 2 2 2 1 5 3 3 4 4 4 4 4 4 5 4 4 4 4 4 4 4 3 3 3 3 2 2 2 2 1 1 1 1 1 2 2 1 1 1 1 2 2 1 2 2 2
3 3 2 1 3 2 3 5 1 3 4 4 4 4 4 4 4 3 4 4 4 4 4 4 4 3 3 3 2 2 2 2 1 1 1 1 1 1 2 1 1 1 1 1 1 2 2 2 2
2 3 2 2 2 2 5 7 4 3 4 5 4 4 4 5 5 4 4 4 4 4 4 4 4 4 3 2 2 1 1 1 1 1 1 2 1 1 2 1 1 1 1 1 1 2 2 1 1
3 3 3 2 1 2 6 8 7 5 5 5 4 4 5 5 4 4 4 4 4 4 4 5 5 4 3 2 2 2 2 1 1 2 2 2 2 2 2 2 2 1 1 1 2 2 2 2 1
2 3 3 2 1 2 5 9 8 6 6 5 5 5 5 4 4 5 5 4 4 5 5 4 4 4 4 3 3 2 2 2 2 2 3 3 2 2 2 2 2 1 2 2 2 2 1 1 1
2 3 3 2 3 3 4 7 5 4 5 5 5 5 4 4 5 5 5 5 4 5 5 5 5 5 4 3 2 2 1 1 1 1 2 3 3 2 2 2 2 2 2 2 2 2 2 1 0
3 1 2 2 2 2 2 5 4 4 5 6 5 5 4 4 4 5 6 6 6 5 4 4 5 4 4 3 3 4 3 3 3 2 2 3 3 3 2 2 2 2 2 2 2 2 2 2 1
0 1 2 2 3 3 3 3 6 3 4 5 5 5 4 4 4 5 6 6 6 5 5 4 4 4 4 3 3 4 3 2 1 1 2 2 2 3 2 2 2 2 2 3 3 2 2 2 2
0 1 2 2 1 3 4 4 6 3 5 4 4 5 4 3 4 4 4 4 4 4 4 4 4 4 4 4 3 4 4 2 2 2 2 2 2 2 3 2 2 2 2 2 3 3 3 2 2
1 1 1 1 1 5 2 4 8 3 3 3 4 4 4 3 3 3 4 5 4 5 5 5 5 5 5 5 4 5 4 4 4 3 3 3 2 2 3 3 2 2 2 2 2 3 2 2 2
2 1 2 2 3 3 1 6 7 1 2 2 2 2 3 4 3 3 4 4 4 5 5 6 6 5 5 5 5 4 4 3 3 4 3 4 3 3 3 3 3 3 2 3 3 2 2 2 2
2 2 1 0 1 3 5 5 4 2 2 2 2 2 3 4 4 3 3 4 4 5 5 6 6 5 6 6 5 5 5 4 4 4 3 3 2 2 3 3 3 2 2 3 3 2 2 2 2
2 0 2 2 2 4 5 5 5 5 5 4 4 4 3 3 3 3 3 4 4 4 4 4 6 6 5 6 5 5 5 4 4 3 4 3 3 3 3 3 3 3 2 2 3 2 2 2 2
4 2 3 2 2 3 4 6 2 5 4 4 5 4 3 3 4 3 3 3 3 3 3 4 5 5 5 6 5 4 4 4 4 4 4 4 3 4 4 4 3 3 3 3 3 2 3 3 2
3 4 5 4 4 4 4 8 2 2 3 3 3 3 3 3 3 3 3 3 3 3 3 4 5 6 5 5 4 5 4 4 4 4 4 4 4 4 4 4 3 3 3 3 4 3 3 4 3
Wind_Direction
309 284 267 267 247 236 238 181 108 95 72 52 37 30 51 39 33 98 106 74 75 87 99 98 76 81 80 81 84 84 80 76 73 72 73 71 70 68 69 70 68 70 73 73 73 71 69 66 61
303 296 277 255 249 242 230 162 119 77 76 72 47 44 71 72 70 95 93 66 80 91 95 95 77 79 79 79 84 86 84 81 78 76 73 71 70 69 71 72 71 70 73 75 74 71 68 65 61
284 272 263 242 244 258 20 81 94 89 91 91 69 40 49 74 85 85 91 87 81 84 88 89 79 77 78 77 82 86 88 87 83 80 78 75 74 73 73 73 71 70 70 73 75 71 71 66 61
283 242 236 247 245 269 27 66 100 115 112 81 99 92 77 53 60 85 104 100 87 84 84 86 76 74 76 76 80 86 89 90 88 86 83 78 78 77 75 75 73 71 70 69 73 74 72 68 63
242 247 223 234 245 251 69 78 125 140 142 127 106 106 98 82 80 93 103 97 92 88 87 89 78 72 71 76 80 82 89 92 90 89 86 81 80 80 79 78 76 75 72 70 71 74 74 70 64
251 245 232 226 220 193 93 48 91 137 119 107 74 102 107 99 86 87 95 92 88 90 95 95 82 75 70 70 76 79 87 94 93 91 87 84 83 82 82 79 80 77 74 74 73 72 73 71 64
265 256 253 248 221 193 108 67 29 113 115 104 347 102 123 113 89 82 83 88 91 94 99 107 111 94 77 72 74 77 80 86 88 88 83 76 76 77 77 75 78 78 76 75 72 72 75 74 67
298 268 249 248 229 181 107 95 21 2 84 55 15 98 138 131 109 95 89 83 84 91 95 102 106 117 115 98 80 80 78 77 81 85 81 76 75 73 73 71 74 78 78 76 74 75 76 70 62
280 252 237 247 245 134 121 131 53 14 77 72 41 31 95 122 121 109 99 86 75 68 74 92 91 95 111 117 105 93 84 75 77 83 80 80 81 84 80 72 73 77 77 76 77 76 73 66 56
266 245 257 342 2 86 132 146 140 163 167 159 125 86 102 126 142 149 152 137 113 95 80 72 85 102 111 117 118 112 100 85 68 60 63 64 59 76 86 82 77 76 76 79 81 76 71 60 48
273 250 313 14 20 59 122 190 178 203 224 209 172 148 143 146 163 174 175 168 165 138 111 87 73 93 106 103 109 88 81 83 73 54 51 58 67 74 80 87 81 76 77 73 76 70 57 58 51
240 351 5 19 15 1 279 234 236 244 282 3 115 146 159 172 183 185 186 177 158 146 129 116 102 116 106 104 105 104 94 93 82 54 49 58 62 65 74 78 76 72 71 73 64 62 54 58 58
209 222 37 58 36 349 325 262 260 241 229 79 111 144 170 185 188 178 171 169 161 151 153 145 167 138 117 104 105 105 99 103 103 77 53 58 68 74 78 77 71 65 65 79 64 62 57 57 52
126 141 205 161 141 302 267 258 247 235 170 159 151 167 184 185 183 178 177 178 175 166 165 151 169 150 139 128 111 113 113 90 96 89 70 69 69 65 86 92 80 63 62 76 75 73 70 62 57
160 168 203 207 195 192 277 269 224 216 174 180 179 186 192 191 187 196 190 183 177 170 161 166 168 158 157 144 136 122 117 115 110 116 110 86 78 74 70 82 84 73 74 81 77 62 67 72 67
216 223 227 193 188 176 228 264 222 161 179 197 197 193 191 192 197 199 184 182 176 168 164 174 167 164 162 147 146 142 139 131 135 133 123 104 89 91 93 82 71 63 83 85 86 76 74 73 66
205 231 234 202 187 192 223 259 239 157 191 210 209 205 195 190 193 192 177 178 177 173 171 168 164 168 162 153 150 143 143 145 147 133 128 136 124 102 109 103 90 90 89 87 87 78 83 82 69
235 252 260 241 194 226 245 257 253 219 213 222 213 207 202 202 197 183 173 173 168 167 170 167 167 164 164 162 150 139 143 155 149 137 140 140 139 125 122 117 95 98 100 84 87 90 83 92 83
313 285 275 302 79 245 253 265 264 234 218 227 223 210 211 212 197 169 165 158 160 163 170 173 172 174 175 173 166 164 183 182 175 161 155 145 143 149 133 126 124 117 120 115 106 103 101 74 65
283 288 294 320 28 281 277 274 266 240 219 216 224 221 213 204 192 177 170 165 168 168 172 174 173 175 180 186 184 181 175 179 173 164 159 159 161 165 153 140 143 139 133 116 108 92 86 92 82
263 264 291 306 316 261 287 284 236 221 211 213 216 217 219 204 193 183 178 179 179 185 183 182 177 174 176 179 186 163 145 129 156 186 174 172 168 174 168 162 156 161 157 158 152 140 114 138 166
270 338 315 318 310 277 230 289 259 211 209 209 212 209 210 211 194 182 179 185 190 192 179 178 174 173 174 169 181 177 181 196 210 193 179 173 173 178 179 171 172 173 170 161 167 155 145 144 164
300 356 301 280 272 287 232 248 273 202 221 213 203 201 200 202 193 184 181 187 186 181 176 179 171 176 176 177 187 191 195 206 181 150 161 168 171 170 175 178 183 185 185 173 170 165 163 166 170
285 279 261 254 251 267 220 214 270 213 209 197 188 189 190 193 193 183 173 170 175 174 175 175 177 183 184 188 194 202 197 182 164 174 186 185 181 178 180 185 187 184 180 176 179 176 179 183 181
251 70 15 331 263 249 192 218 251 223 165 173 180 187 184 184 183 181 172 175 182 181 181 183 184 192 191 196 207 209 200 183 186 191 197 185 186 192 196 188 190 190 187 175 171 172 182 185 185
215 214 171 220 252 280 253 236 251 200 118 112 135 153 168 178 182 191 190 183 185 187 187 188 191 195 195 198 212 212 200 190 197 198 197 189 189 195 188 184 186 185 183 181 179 182 186 183 190
177 210 323 107 305 285 253 249 275 167 158 163 177 185 195 184 184 191 190 184 186 191 196 194 195 199 200 199 208 213 204 194 196 196 191 185 179 177 175 176 175 174 181 184 180 189 187 183 190
297 306 129 171 225 264 268 247 237 215 214 200 197 211 214 188 185 189 191 189 188 195 202 199 196 202 202 200 206 211 207 198 193 188 190 186 176 164 167 176 177 174 176 179 174 181 184 175 190
178 193 200 210 231 227 271 265 232 182 179 186 203 204 205 204 195 193 199 190 182 187 195 205 199 200 201 202 204 205 206 199 190 186 188 184 173 164 170 174 178 178 176 176 177 181 175 183 183
217 207 178 185 234 228 253 269 274 123 142 170 201 203 199 204 193 191 188 180 183 193 203 207 202 201 201 196 196 199 198 187 186 189 187 174 168 166 169 166 172 183 182 173 176 184 185 184 183